Location: Chandolas
(44.4033°N, 4.2533°E)
Time: 15:05:43
(UTC+00:00)

Okean O Rocket - Pass Details

Date: 15 November 2019
Orbit: 622 x 645 km, 98.2° (Epoch: 13 December)

Event Time Altitude Azimuth Distance (km) Brightness Sun altitude
Rises 04:57:14 0° 18° (NNE) 2,915 5.1 -18.1°
Reaches altitude 10° 04:59:30 10° 24° (NNE) 2,002 4.4 -17.7°
Maximum altitude 05:03:44 49° 100° (E) 806 2.6 -16.9°
Drops below altitude 10° 05:07:55 10° 176° (S) 1,987 4.3 -16.2°
Sets 05:10:09 0° 181° (S) 2,890 5.1 -15.8°
